Location: Dillon
(41.1766°N, 107.0923°W)
Time: 16:22:04
(UTC+00:00)

SO-50 - Pass Details

Date: 07 July 2022
Orbit: 585 x 698 km, 64.6° (Epoch: 08 August)

Event Time Altitude Azimuth Distance (km) Brightness Sun altitude
Exits shadow 05:56:14 59° 231° (SW) 764 ? -23.8°
Maximum altitude 05:57:05 80° 303° (WNW) 679 ? -23.8°
Drops below altitude 10° 06:01:55 10° 31° (NNE) 2,123 ? -24.1°
Sets 06:04:18 0° 33° (NNE) 3,055 ? -24.3°
